FENGYUN 1C DEB, 31031

Orbit data source: Space-Track

FENGYUN 1C DEB, 31031 is space debris in SSO originally from a launch on Mon, 10 May 1999 UTC launched from the Taiyaun Space Center, China (TSC). Fengyun 1C debris stems from the Chinese weather satellite Fengyun-1C, which was intentionally destroyed by a Chinese anti-satellite missile in 2007. This event dramatically increased the amount of space debris, with thousands of trackable fragments posing hazards to satellites and human spaceflight. The Fengyun 1C debris cloud has become a focal point in discussions about space sustainability and the need for international regulations to prevent the creation of new debris.

Loading next visibility...
Identifier
31031, 1999-025BDZ
Orbit
SSO
Country
Flag of CNCN / PRC
Related business
Manufacturer
Unknown
Mission
Spacecraft
Bus & Motor
Unknown
Mass
Unknown
Launch date (UTC)
1999-05-10 (27 years ago)
Launch vehicle
Unknown
Launch site
Taiyaun Space Center, China (TSC)
Object type
Payload
Rocket body
Debris
Shape & HBR
Unknown shape, 0.1 m
Radar Cross Section
Small (<0.1 m²)

Expand to show TLE details & history
Last TLE update: 8 hours ago

TLE from 8 hours ago
0 FENGYUN 1C DEB
1 31031U 99025BDZ 26257.27535758  .00000499  00000-0  24866-3 0  9998
2 31031  99.0750 186.8861 0028775 118.9723  34.4682 14.21425330  7636
Epoch: 2026-09-14T06:36Z
TLE epoch observation values (Epoch: 2026-09-14T06:36:30.894Z)
Latitude
26.05213°
Longitude
-81.04601°
Altitude
806.625 km
Speed
7.461 km/s
True Right ascension
00h 45m 21s
True Declination
25° 55' 03"
Sunlit
Object was in full shadow at epoch
Visualization orbit readout
Latitude
Unknown
Longitude
Unknown
Altitude
Unknown
Speed
Unknown
Apparent Right ascension
Unknown
Apparent Declination
Unknown
Sunlit
N/A
Visualization observer readout
Local Sidereal Time
06:44:20
Azimuth
Unknown
Elevation
Unknown
Doppler factor
Unknown
Orbital elements
Apogee altitude
838.417 km
Perigee altitude
797.005 km
Semi-major axis
7,195.848 km
Eccentricity
0.00288
Inclination
99.075°
RAAN
186.8861°
Arg. of periapsis
118.9723°
True anomaly
34.65537°
Mean anomaly
34.4682°
Eccentric anomaly
34.56173°
Mean motion
3.55566 °/min
Orbital period
101.25 mins
BSTAR
0.00024866
Loading maneuver chart data...
Computing Atmospheric mass density...

Documentation

Showing up to 5 results
|